Hourly Data Report for September 24, 2018

SHEARWATER RCS
NOVA SCOTIA
Current Station Operator: ECCC - MSC

44°37'47.000" N
63°30'48.000" W
24.00 m
8205092
71264
AAW

Download Data

Hourly Data (September 2018)
Hourly Data Report for September 24, 2018
TIME Temp Definition
°C
Dew Point Definition
°C
Rel Hum Definition
%
Wind Dir Definition
10's deg

Wind Spd Definition
km/h
Visibility Definition
km
Stn Press Definition
kPa
Hmdx Definition


Wind Chill Definition


Weather Definition


00:00 11.6 5.6 66 33 17   102.19     LegendNANA
01:00 11.5 7.0 74 35 24   102.27     LegendNANA
02:00 10.3 4.7 68 35 24   102.38     LegendNANA
03:00 9.0 3.1 66 35 25   102.46     LegendNANA
04:00 8.3 2.2 65 35 17   102.53     LegendNANA
05:00 7.9 1.5 64 35 17   102.64     LegendNANA
06:00 6.8 0.7 65 34 15   102.75     LegendNANA
07:00 7.1 -0.4 59 35 15   102.91     LegendNANA
08:00 8.5 -1.7 49 35 22   103.01     LegendNANA
09:00 9.9 -2.9 40 1 20   103.09     LegendNANA
10:00 10.7 -2.2 41 36 17   103.15     LegendNANA
11:00 11.5 -3.4 35 1 14   103.16     LegendNANA
12:00 12.6 -3.3 33 1 16   103.17     LegendNANA
13:00 12.9 -3.2 32 36 16   103.15     LegendNANA
14:00 13.7 -3.7 30 36 14   103.12     LegendNANA
15:00 14.0 -4.6 27 36 15   103.11     LegendNANA
16:00 13.5 -3.6 30 34 13   103.16     LegendNANA
17:00 12.9 -3.7 31 36 11   103.23     LegendNANA
18:00 10.7 -3.0 38 35 11   103.30     LegendNANA
19:00 9.1 -2.8 43 1 10   103.41     LegendNANA
20:00 7.6 -2.0 50 1 10   103.51     LegendNANA
21:00 7.2 -1.9 52 36 10   103.57     LegendNANA
22:00 6.1 -1.6 58 2 6   103.63     LegendNANA
23:00 6.4 -1.3 58 2 6   103.61     LegendNANA

Notes on Data Quality.

Legend

  • E = Estimated
  • M = Missing
  • NA = Not Available*
  • [empty] = Indicates an unobserved value
Date modified: